Fitchburg, MA

1:55 PM EDT on July 21, 2019 (GMT -0400)
Fitchburg Municipal

Weather History for KFIT - May, 2019

Change the Weather History Date:

Thursday, May 30, 2019

  Actual Average (KORH) Record (KORH)
Temperature  
Mean Temperature 58 °F -  
Max Temperature 68 °F 70 °F 91 °F (1929)
Min Temperature 48 °F 51 °F 36 °F (1961)
Degree Days  
Heating Degree Days 7    
Growing Degree Days 8 (Base 50)    
Moisture  
Dew Point 51 °F    
Average Humidity 84    
Maximum Humidity 93    
Minimum Humidity 63    
Precipitation  
Precipitation 0.01 in - - ()
Sea Level Pressure  
Sea Level Pressure 29.77 in    
Wind  
Wind Speed 5 mph (SSE)    
Max Wind Speed 9 mph    
Max Gust Speed -    
Visibility 8 miles    
Events Rain    
Averages and records for this station are not official NWS values.
T = Trace of Precipitation, MM = Missing Value Source: NWS Daily Summary

Daily Weather History Graph

Daily Weather History Graph

Search for Another Location

Airport or City:

Astronomy

May. 30, 2019 Rise Set
Actual Time 5:13 AM EDT 8:16 PM EDT
Civil Twilight 4:39 AM EDT 8:50 PM EDT
Nautical Twilight 3:56 AM EDT 9:33 PM EDT
Astronomical Twilight 3:05 AM EDT 10:25 PM EDT
Moon 3:24 AM EDT (5/30) 4:14 PM EDT (5/30)
Length of Visible Light 16h 10m
Length of Day
15h 02m
Waning Crescent, 15% of the Moon is Illuminated
May 30
Waning Crescent
Jun 3
New
Jun 10
First Quarter
Jun 17
Full
Jun 25
Last Quarter

Hourly Weather History & Observations

Time (EDT) Temp. Dew Point Humidity Pressure Visibility Wind Dir Wind Speed Gust Speed Precip Events Conditions
12:52 AM 51.1 °F 45.0 °F 80% 29.79 in 10.0 mi SE 4.6 mph - N/A   Overcast
1:52 AM 50.0 °F 45.0 °F 83% 29.79 in 10.0 mi SE 4.6 mph - 0.00 in   Overcast
2:33 AM 48.9 °F 46.9 °F 93% 29.79 in 6.0 mi South 4.6 mph - N/A   Overcast
2:52 AM 48.9 °F 46.9 °F 93% 29.79 in 10.0 mi SE 3.5 mph - N/A   Overcast
3:11 AM 48.9 °F 46.9 °F 93% 29.78 in 10.0 mi ESE 3.5 mph - N/A   Overcast
3:20 AM 48.9 °F 46.9 °F 93% 29.78 in 10.0 mi SE 3.5 mph - N/A   Overcast
3:31 AM 48.9 °F 46.9 °F 93% 29.78 in 10.0 mi ESE 3.5 mph - N/A   Overcast
3:52 AM 48.9 °F 46.9 °F 93% 29.79 in 10.0 mi ESE 3.5 mph - N/A   Overcast
4:14 AM 50.0 °F 46.9 °F 89% 29.79 in 10.0 mi Variable 3.5 mph - N/A   Overcast
4:52 AM 50.0 °F 46.9 °F 89% 29.81 in 10.0 mi South 3.5 mph - N/A   Overcast
5:14 AM 50.0 °F 46.9 °F 89% 29.81 in 5.0 mi SE 5.8 mph - N/A   Overcast
5:27 AM 48.9 °F 46.9 °F 93% 29.80 in 2.5 mi SSE 4.6 mph - N/A   Overcast
5:39 AM 50.0 °F 48.0 °F 93% 29.80 in 1.5 mi SSE 5.8 mph - N/A   Overcast
5:52 AM 50.0 °F 48.0 °F 93% 29.81 in 2.0 mi SSE 5.8 mph - N/A   Overcast
6:09 AM 50.0 °F 48.0 °F 93% 29.81 in 1.8 mi SE 5.8 mph - N/A   Overcast
6:17 AM 50.0 °F 48.0 °F 93% 29.81 in 2.0 mi SSE 5.8 mph - N/A   Overcast
6:29 AM 50.0 °F 48.0 °F 93% 29.81 in 3.0 mi SE 3.5 mph - N/A   Overcast
6:52 AM 50.0 °F 48.0 °F 93% 29.83 in 4.0 mi SSE 3.5 mph - N/A   Overcast
7:52 AM 51.1 °F 48.0 °F 89% 29.82 in 4.0 mi SE 5.8 mph - N/A   Overcast
8:35 AM 52.0 °F 48.9 °F 89% 29.82 in 9.0 mi SE 4.6 mph - N/A   Overcast
8:52 AM 52.0 °F 48.9 °F 89% 29.83 in 10.0 mi SSE 4.6 mph - N/A   Overcast
9:08 AM 52.0 °F 48.9 °F 89% 29.82 in 10.0 mi SSE 3.5 mph - N/A   Overcast
9:52 AM 53.1 °F 48.9 °F 86% 29.83 in 10.0 mi SE 4.6 mph - N/A   Overcast
10:52 AM 55.9 °F 51.1 °F 84% 29.82 in 10.0 mi ESE 5.8 mph - N/A   Overcast
11:17 AM 57.9 °F 52.0 °F 81% 29.81 in 10.0 mi Variable 3.5 mph - N/A   Overcast
11:52 AM 61.0 °F 53.1 °F 75% 29.81 in 10.0 mi SSE 6.9 mph - N/A   Overcast
12:08 PM 62.1 °F 53.1 °F 72% 29.79 in 10.0 mi Variable 4.6 mph - N/A   Mostly Cloudy
12:15 PM 62.1 °F 53.1 °F 72% 29.79 in 10.0 mi SSE 6.9 mph - N/A   Mostly Cloudy
12:52 PM 64.0 °F 54.0 °F 70% 29.79 in 10.0 mi SSE 6.9 mph - N/A   Overcast
1:52 PM 66.0 °F 55.0 °F 68% 29.77 in 10.0 mi Calm Calm - N/A   Overcast
2:52 PM 68.0 °F 55.0 °F 63% 29.75 in 10.0 mi South 5.8 mph - N/A   Overcast
3:52 PM 68.0 °F 55.0 °F 63% 29.75 in 10.0 mi WSW 9.2 mph - N/A   Mostly Cloudy
4:52 PM 66.0 °F 55.9 °F 70% 29.71 in 10.0 mi SSW 6.9 mph - N/A   Partly Cloudy
5:52 PM 66.9 °F 55.0 °F 66% 29.70 in 10.0 mi SSW 5.8 mph - N/A   Partly Cloudy
6:52 PM 66.0 °F 55.9 °F 70% 29.71 in 10.0 mi South 9.2 mph - N/A   Partly Cloudy
7:52 PM 64.0 °F 55.9 °F 75% 29.71 in 10.0 mi South 8.1 mph - N/A   Mostly Cloudy
8:52 PM 63.0 °F 55.9 °F 78% 29.71 in 10.0 mi SSE 6.9 mph - N/A   Overcast
9:52 PM 63.0 °F 55.9 °F 78% 29.71 in 10.0 mi South 5.8 mph - N/A   Overcast
10:23 PM 62.1 °F 57.0 °F 84% 29.68 in 10.0 mi SSE 6.9 mph - 0.01 in Rain Light Rain
10:36 PM 62.1 °F 57.0 °F 84% 29.69 in 10.0 mi South 3.5 mph - 0.01 in Rain Light Rain
10:50 PM 62.6 °F 57.2 °F 82% 29.68 in 10.0 mi SSE 4.6 mph - 0.01 in Rain Light Rain
10:52 PM 61.0 °F 57.9 °F 90% 29.69 in 10.0 mi Calm Calm - 0.01 in Rain Light Rain
11:02 PM 62.1 °F 57.9 °F 86% 29.68 in 10.0 mi SSE 3.5 mph - 0.00 in   Overcast
11:52 PM 61.0 °F 57.9 °F 90% 29.66 in 10.0 mi SSE 5.8 mph - 0.00 in Rain Light Rain